Location: Peebles
(55.6412°N, 3.1714°W)
Time: 09:00:52
(UTC+01:00)

Cosmos 2263 - Pass Details

Date: 26 September 2021
Orbit: 831 x 865 km, 70.9° (Epoch: 21 October)

Event Time Altitude Azimuth Distance (km) Brightness Sun altitude
Rises 20:49:02 0° 202° (SSW) 3,366 7.3 -15.8°
Reaches altitude 10° 20:51:28 10° 199° (SSW) 2,436 6.6 -16.1°
Maximum altitude 20:57:00 67° 118° (ESE) 903 4.1 -16.9°
Drops below altitude 10° 21:02:35 10° 37° (NE) 2,460 6.5 -17.6°
Sets 21:05:03 0° 35° (NE) 3,402 7.2 -17.9°
